Weather History for West Palm Beach, FL

Change the Weather History Date:

Sunday, September 8, 2013

  Actual Average Record
Temperature  
Mean Temperature 81 °F 82 °F  
Max Temperature 89 °F 89 °F 94 °F (1911)
Min Temperature 73 °F 75 °F 65 °F (1921)
Degree Days  
Heating Degree Days 0 0  
Month to date heating degree days 0 0  
Since 1 July heating degree days 0 0  
Cooling Degree Days 16 17  
Month to date cooling degree days 148 136  
Year to date cooling degree days 3032 2842  
Growing Degree Days 13 (Base 50)    
Moisture  
Dew Point 72 °F    
Average Humidity 72    
Maximum Humidity 87    
Minimum Humidity 57    
Precipitation  
Precipitation 0.01 in 0.26 in 5.70 in (1952)
Month to date precipitation 1.09 2.24  
Year to date precipitation 48.71 42.96  
Snow  
Snow 0.00 in - - ()
Month to date snowfall 0.0  
Since 1 July snowfall 0.0  
Since 1 September snowfall 0.0  
Snow Depth 0.00 in    
Sea Level Pressure  
Sea Level Pressure 29.91 in    
Wind  
Wind Speed 4 mph (North)    
Max Wind Speed 14 mph    
Max Gust Speed 15 mph    
Visibility 10 miles    
Events Thunderstorm    
T = Trace of Precipitation, MM = Missing Value Source: NWS Daily Summary

Daily Weather History Graph

Daily Weather History Graph

Search for Another Location

Airport:

Trip Planner

Search our weather history database for the weather conditions in past years. The results will help you decide how hot, cold, wet, or windy it might be!

Date:

Astronomy

Sep. 08, 2013 Rise Set
Actual Time 7:03 AM EDT 7:32 PM EDT
Civil Twilight 6:39 AM EDT 7:55 PM EDT
Nautical Twilight 6:12 AM EDT 8:23 PM EDT
Astronomical Twilight 5:44 AM EDT 8:50 PM EDT
Moon 9:55 AM EDT (9/8) 9:32 PM EDT (9/8)
Length of Visible Light 13h 15m
Length of Day
12h 29m
Waxing Crescent, 11% of the Moon is Illuminated
Sep 8
Waxing Crescent
Sep 12
First Quarter
Sep 19
Full
Sep 26
Last Quarter
Oct 4
New

Hourly Weather History & Observations

Time (EDT) Temp. Heat Index Dew Point Humidity Pressure Visibility Wind Dir Wind Speed Gust Speed Precip Events Conditions
12:53 AM 76.1 °F - 72.3 °F 88% 29.92 in 10.0 mi Calm Calm - N/A   Scattered Clouds
1:53 AM 76.3 °F - 70.9 °F 83% 29.93 in 10.0 mi NNW 4.6 mph - N/A   Scattered Clouds
2:53 AM 75.9 °F - 71.1 °F 85% 29.91 in 10.0 mi Calm Calm - N/A   Scattered Clouds
3:53 AM 75.7 °F - 71.4 °F 86% 29.90 in 10.0 mi NW 3.5 mph - N/A   Scattered Clouds
4:53 AM 75.4 °F - 71.4 °F 87% 29.89 in 10.0 mi NNW 6.9 mph - N/A   Scattered Clouds
5:53 AM 75.7 °F - 71.8 °F 87% 29.89 in 10.0 mi Calm Calm - N/A   Partly Cloudy
6:53 AM 75.9 °F - 71.6 °F 86% 29.90 in 10.0 mi NW 4.6 mph - N/A   Scattered Clouds
7:53 AM 75.0 °F - 72.0 °F 90% 29.91 in 10.0 mi Calm Calm - N/A   Scattered Clouds
8:53 AM 80.1 °F 84.2 °F 73.0 °F 79% 29.94 in 10.0 mi North 5.8 mph - N/A   Scattered Clouds
9:53 AM 84.0 °F 91.2 °F 73.9 °F 72% 29.94 in 10.0 mi NNE 6.9 mph - N/A   Scattered Clouds
10:53 AM 86.0 °F 92.2 °F 72.0 °F 63% 29.94 in 10.0 mi North 5.8 mph - N/A   Scattered Clouds
11:53 AM 88.0 °F 93.8 °F 71.1 °F 57% 29.92 in 10.0 mi Variable 3.5 mph - N/A   Scattered Clouds
12:53 PM 86.0 °F 90.1 °F 69.1 °F 57% 29.91 in 10.0 mi East 9.2 mph - N/A   Scattered Clouds
1:53 PM 88.0 °F 93.8 °F 71.1 °F 57% 29.91 in 10.0 mi ENE 10.4 mph - N/A   Scattered Clouds
2:00 PM 87.8 °F 93.8 °F 71.6 °F 58% 29.90 in 10.0 mi East 8.1 mph - N/A Thunderstorm Thunderstorm
2:53 PM 81.0 °F 85.2 °F 72.0 °F 74% 29.89 in 10.0 mi WSW 4.6 mph - 0.01 in Thunderstorm Thunderstorm
3:07 PM 82.4 °F 87.2 °F 71.6 °F 70% 29.89 in 10.0 mi West 4.6 mph - N/A   Mostly Cloudy
3:53 PM 84.9 °F 90.7 °F 72.0 °F 65% 29.88 in 10.0 mi East 6.9 mph - N/A   Mostly Cloudy
4:53 PM 82.0 °F 86.3 °F 71.1 °F 69% 29.87 in 10.0 mi NNW 8.1 mph - N/A   Mostly Cloudy
5:53 PM 84.0 °F 89.6 °F 72.0 °F 67% 29.88 in 10.0 mi North 4.6 mph - N/A   Mostly Cloudy
6:53 PM 84.0 °F 89.6 °F 72.0 °F 67% 29.87 in 10.0 mi ENE 6.9 mph - N/A   Mostly Cloudy
7:53 PM 82.9 °F 88.0 °F 72.0 °F 69% 29.88 in 10.0 mi East 4.6 mph - N/A   Mostly Cloudy
8:53 PM 82.0 °F 86.7 °F 72.0 °F 71% 29.91 in 10.0 mi Calm Calm - N/A   Mostly Cloudy
9:53 PM 82.9 °F 85.8 °F 68.0 °F 60% 29.94 in 10.0 mi Calm Calm - N/A   Mostly Cloudy
10:53 PM 80.1 °F 83.2 °F 70.0 °F 71% 29.95 in 10.0 mi Calm Calm - N/A   Mostly Cloudy
11:53 PM 78.1 °F - 72.0 °F 81% 29.95 in 10.0 mi Calm Calm - N/A   Scattered Clouds